This is the latest recevied weather packets stored in our database for station/object W2OBX. If no packets are shown the sender has not sent any weather packets the latest 10 day(s).
| Time | Temp. | Humidity | Pressure | Rain* | Wind** | Luminosity | Snow |
|---|---|---|---|---|---|---|---|
| 1777568417 | 17.22° C | 57% | 1015 hPa | 0 mm | - | 767 W/m² | - |
| 1777568114 | 17.78° C | 56% | 1014.8 hPa | 0 mm | - | 76 W/m² | - |
| 1777567810 | 17.78° C | 57% | 1014.8 hPa | 0 mm | - | 108 W/m² | - |
| 1777567507 | 16.67° C | 63% | 1015 hPa | 0 mm | - | 123 W/m² | - |
| 1777567204 | 16.67° C | 61% | 1014.9 hPa | 0 mm | - | 129 W/m² | - |
| 1777566902 | 16.67° C | 64% | 1015 hPa | 0 mm | - | 89 W/m² | - |
| 1777566600 | 16.11° C | 63% | 1014.9 hPa | 0 mm | - | 113 W/m² | - |
| 1777566297 | 16.11° C | 65% | 1015 hPa | 0 mm | - | 74 W/m² | - |
| 1777565994 | 16.11° C | 63% | 1015.1 hPa | 0 mm | - | 104 W/m² | - |
| 1777565689 | 15.56° C | 67% | 1015.2 hPa | 0 mm | - | 134 W/m² | - |
| 1777565386 | 15.56° C | 67% | 1015.2 hPa | 0 mm | - | 97 W/m² | - |
| 1777565082 | 15.56° C | 66% | 1015.1 hPa | 0 mm | - | 74 W/m² | - |
| 1777564778 | 15.56° C | 68% | 1015.2 hPa | 0 mm | - | 73 W/m² | - |
| 1777564473 | 15.56° C | 67% | 1015 hPa | 0 mm | - | 75 W/m² | - |
| 1777564169 | 15.56° C | 67% | 1015.1 hPa | 0 mm | - | 60 W/m² | - |
| 1777563866 | 15.56° C | 69% | 1014.8 hPa | 0 mm | - | 107 W/m² | - |
| 1777563562 | 15.56° C | 69% | 1015 hPa | 0 mm | - | 93 W/m² | - |
| 1777563261 | 15.56° C | 71% | 1015.1 hPa | 0 mm | - | 70 W/m² | - |
| 1777562958 | 15.56° C | 70% | 1015.1 hPa | 0 mm | - | 62 W/m² | - |
| 1777562654 | 15.56° C | 70% | 1015 hPa | 0 mm | - | 74 W/m² | - |
| 1777562348 | 15.56° C | 72% | 1014.9 hPa | 0 mm | - | 88 W/m² | - |
| 1777562044 | 15.56° C | 71% | 1014.7 hPa | 0 mm | - | 62 W/m² | - |
| 1777561741 | 15.56° C | 69% | 1014.9 hPa | 0 mm | - | 34 W/m² | - |
| 1777561436 | 15.56° C | 69% | 1015.1 hPa | 0 mm | - | 45 W/m² | - |
| 1777561132 | 15.56° C | 72% | 1014.7 hPa | 0 mm | - | 81 W/m² | - |
* Rain latest hour (hover to see other rain measurements)
** Current wind speed in m/s (hover to see current wind gust speed)